KV6O Weather Reports


time (UTC)temp
C
wind
direction
speed
KPH
gust
KPH
rain 1hr
cm
rain 24hr
cm
rain mn
cm
humidity
%
barometer
mb
20260508004041 10 0 0.0 0.0 0.00 0.00 0.79 59
20260508002442 10 0 0.0 0.0 0.00 0.00 0.79 61
20260508000841 10 0 0.0 0.0 0.00 0.00 0.79 60
20260508000041 10 0 0.0 0.0 0.00 0.00 0.79 68
20260507235641 10 0 0.0 0.0 0.00 0.00 0.79 64
20260507234842 11 0 0.0 0.0 0.00 0.00 0.79 59
20260507234041 11 0 0.0 0.0 0.00 0.00 0.79 62
20260507231641 11 0 0.0 0.0 0.00 0.00 0.79 60
20260507230840 11 0 0.0 0.0 0.00 0.00 0.79 63
20260507230040 11 0 0.0 0.0 0.00 0.00 0.79 60
20260507225641 11 0 0.0 0.0 0.00 0.00 0.79 60
20260507224846 11 0 0.0 0.0 0.00 0.00 0.79 57
20260507224041 11 0 0.0 0.0 0.00 0.00 0.79 61
20260507223241 10 0 0.0 0.0 0.00 0.00 0.79 59
20260507222441 10 0 0.0 0.0 0.00 0.00 0.79 62
20260507221641 10 0 0.0 0.0 0.00 0.00 0.79 61
20260507220841 10 0 0.0 0.0 0.00 0.00 0.79 65
20260507220041 10 0 0.0 0.0 0.00 0.00 0.79 63
20260507214841 10 0 0.0 0.0 0.00 0.00 0.79 65
20260507214041 11 0 0.0 0.0 0.00 0.00 0.79 58
20260507212440 11 0 0.0 0.0 0.00 0.00 0.79 58
20260507211641 11 0 0.0 0.0 0.00 0.00 0.79 56
20260507210041 11 0 0.0 0.0 0.00 0.00 0.79 56
20260507205640 10 0 0.0 0.0 0.00 0.00 0.79 60
20260507204841 10 0 0.0 0.0 0.00 0.00 0.79 63
20260507204040 10 0 0.0 0.0 0.00 0.00 0.79 59
20260507202441 11 0 0.0 0.0 0.00 0.00 0.79 57
20260507200041 10 0 0.0 0.0 0.00 0.00 0.79 64
20260507195641 10 0 0.0 0.0 0.00 0.00 0.79 62
20260507194841 10 0 0.0 0.0 0.00 0.00 0.79 62
20260507194041 10 0 0.0 0.0 0.00 0.00 0.79 60
20260507193242 10 0 0.0 0.0 0.00 0.00 0.79 60
20260507192441 10 0 0.0 0.0 0.00 0.00 0.79 60
20260507190842 10 0 0.0 0.0 0.00 0.00 0.79 66
20260507185642 10 0 0.0 0.0 0.00 0.00 0.79 63
20260507184841 10 0 0.0 0.0 0.00 0.00 0.79 63
20260507184041 10 0 0.0 0.0 0.00 0.00 0.79 62
20260507183241 11 0 0.0 0.0 0.00 0.00 0.79 58
20260507182440 11 0 0.0 0.0 0.00 0.00 0.79 57
20260507180841 10 0 0.0 0.0 0.00 0.00 0.79 60
20260507180041 9 0 0.0 0.0 0.00 0.00 0.76 67
20260507175640 8 0 0.0 0.0 0.00 0.00 0.76 70
20260507174041 8 0 0.0 0.0 0.00 0.00 0.66 70
20260507173242 7 0 0.0 0.0 0.00 0.00 0.58 68
20260507170841 7 0 0.0 0.0 0.00 0.00 0.33 73
20260507170040 7 0 0.0 0.0 0.00 0.00 0.28 74
20260507165642 7 0 0.0 0.0 0.00 0.00 0.23 77
20260507164841 7 0 0.0 0.0 0.00 0.00 0.18 77
20260507164040 6 0 0.0 0.0 0.00 0.00 0.13 73
20260507163241 6 0 0.0 0.0 0.00 0.00 0.10 79
20260507162441 6 0 0.0 0.0 0.00 0.00 0.08 82
20260507161641 6 0 0.0 0.0 0.00 0.00 0.08 79
20260507160841 7 0 0.0 0.0 0.00 0.00 0.05 80
20260507160041 8 0 0.0 0.0 0.00 0.00 0.05 74
20260507155640 8 0 0.0 0.0 0.00 0.00 0.03 67
20260507154841 8 0 0.0 0.0 0.00 0.00 0.03 70
20260507154040 7 0 0.0 0.0 0.00 0.00 0.00 73
20260507153241 7 0 0.0 0.0 0.00 0.00 0.00 82
20260507152441 6 0 0.0 0.0 0.00 0.00 0.00 81
20260507151641 6 0 0.0 0.0 0.00 0.00 0.00 87
20260507150841 5 0 0.0 0.0 0.00 0.00 0.00 84
20260507150041 5 0 0.0 0.0 0.00 0.00 0.00 89
20260507144041 3 0 0.0 0.0 0.00 0.00 0.00 90
20260507143241 2 0 0.0 0.0 0.00 0.00 0.00 88
20260507142441 2 0 0.0 0.0 0.00 0.00 0.00 89
20260507141641 2 0 0.0 0.0 0.00 0.00 0.00 89
20260507140840 2 0 0.0 0.0 0.00 0.00 0.00 87
20260507140041 1 0 0.0 0.0 0.00 0.00 0.00 86
20260507135641 1 0 0.0 0.0 0.00 0.00 0.00 88
20260507134041 0 0 0.0 0.0 0.00 0.00 0.00 90
20260507133240 0 0 0.0 0.0 0.00 0.00 0.00 90
20260507132442 0 0 0.0 0.0 0.00 0.00 0.00 92
20260507131643 0 0 0.0 0.0 0.00 0.00 0.00 94
20260507130841 -1 0 0.0 0.0 0.00 0.00 0.00 95
20260507130041 -1 0 0.0 0.0 0.00 0.00 0.00 95
20260507125640 -1 0 0.0 0.0 0.00 0.00 0.00 96
20260507124841 -2 0 0.0 0.0 0.00 0.00 0.00 96
20260507124042 -2 0 0.0 0.0 0.00 0.00 0.00 96
20260507122441 -2 0 0.0 0.0 0.00 0.00 0.00 95
20260507121640 -2 0 0.0 0.0 0.00 0.00 0.00 95
20260507120841 -2 0 0.0 0.0 0.00 0.00 0.00 95
20260507120041 -2 0 0.0 0.0 0.00 0.00 0.00 95
20260507114041 -2 0 0.0 0.0 0.00 0.00 0.00 94
20260507113241 -2 0 0.0 0.0 0.00 0.00 0.00 94
20260507112441 -2 0 0.0 0.0 0.00 0.00 0.00 93
20260507111641 -2 0 0.0 0.0 0.00 0.00 0.00 94
20260507110841 -2 0 0.0 0.0 0.00 0.00 0.00 94
20260507105641 -2 0 0.0 0.0 0.00 0.00 0.00 93
20260507104841 -2 0 0.0 0.0 0.00 0.00 0.00 92
20260507104042 -1 0 0.0 0.0 0.00 0.00 0.00 90
20260507103241 -1 0 0.0 0.0 0.00 0.00 0.00 89
20260507102441 -1 0 0.0 0.0 0.00 0.00 0.00 89
20260507100841 -1 0 0.0 0.0 0.00 0.00 0.00 88
20260507095640 -1 0 0.0 0.0 0.00 0.00 0.00 88
20260507094841 -1 0 0.0 0.0 0.00 0.00 0.00 90
20260507094041 -1 0 0.0 0.0 0.00 0.00 0.00 89
20260507093242 -1 0 0.0 0.0 0.00 0.00 0.00 89
20260507092441 -1 0 0.0 0.0 0.00 0.00 0.00 88
20260507091641 -1 0 0.0 0.0 0.00 0.00 0.00 86
20260507090841 -1 0 0.0 0.0 0.00 0.00 0.00 88
20260507090040 -1 0 0.0 0.0 0.00 0.00 0.00 90
20260507085641 -1 0 0.0 0.0 0.00 0.00 0.00 90
20260507084841 -2 0 0.0 0.0 0.00 0.00 0.00 91
20260507084042 -2 0 0.0 0.0 0.00 0.00 0.00 92
20260507083241 -2 0 0.0 0.0 0.00 0.00 0.00 93
20260507081640 -2 0 0.0 0.0 0.00 0.00 0.00 93
20260507080041 -2 0 0.0 0.0 0.00 0.00 0.00 94
20260507074841 -2 0 0.0 0.0 0.00 0.00 0.00 95
20260507074041 -2 0 0.0 0.0 0.00 0.00 0.00 96
20260507073241 -3 0 0.0 0.0 0.00 0.00 0.00 96
20260507072442 -3 0 0.0 0.0 0.00 0.00 0.00 97
20260507071641 -3 0 0.0 0.0 0.00 0.00 0.00 98
20260507070841 -4 0 0.0 0.0 0.00 0.00 0.00 99
20260507070040 -4 0 0.0 0.0 0.00 0.00 0.00 99
20260507065641 -4 0 0.0 0.0 0.00 0.00 0.00 99
20260507064842 -4 0 0.0 0.0 0.00 0.00 0.00 99
20260507064041 -3 0 0.0 0.0 0.00 0.00 0.00 99
20260507062441 -3 0 0.0 0.0 0.00 0.00 0.00 99
20260507061641 -3 0 0.0 0.0 0.00 0.00 0.00 99
20260507060841 -3 0 0.0 0.0 0.00 0.00 0.00 99
20260507055641 -4 0 0.0 0.0 0.00 0.00 0.08 99
20260507054842 -4 0 0.0 0.0 0.00 0.00 0.08 99
20260507054041 -4 0 0.0 0.0 0.00 0.00 0.08 100
20260507053241 -4 0 0.0 0.0 0.00 0.00 0.08 100
20260507052441 -4 0 0.0 0.0 0.00 0.00 0.08 100
20260507051641 -4 0 0.0 0.0 0.00 0.00 0.08 100
20260507050040 -4 0 0.0 0.0 0.00 0.00 0.08 100
20260507045641 -4 0 0.0 0.0 0.00 0.00 0.08 100
20260507044841 -4 0 0.0 0.0 0.00 0.00 0.08 100
20260507044040 -4 0 0.0 0.0 0.00 0.00 0.08 100
20260507042441 -4 0 0.0 0.0 0.00 0.00 0.08 100
20260507041642 -4 0 0.0 0.0 0.00 0.00 0.08 100
20260507040841 -4 0 0.0 0.0 0.00 0.00 0.08 100
20260507040041 -4 0 0.0 0.0 0.00 0.00 0.08 100
20260507035641 -4 0 0.0 0.0 0.00 0.00 0.08 100
20260507034841 -4 0 0.0 0.0 0.00 0.00 0.08 100
20260507034041 -4 0 0.0 0.0 0.00 0.00 0.08 100
20260507033241 -4 0 0.0 0.0 0.00 0.00 0.08 100
20260507032441 -4 0 0.0 0.0 0.00 0.00 0.08 100
20260507031641 -5 0 0.0 0.0 0.00 0.00 0.08 100
20260507030841 -5 0 0.0 0.0 0.00 0.00 0.08 100
20260507025641 -5 0 0.0 0.0 0.00 0.00 0.08 100
20260507024841 -5 0 0.0 0.0 0.00 0.00 0.08 100
20260507024041 -5 0 0.0 0.0 0.00 0.00 0.08 100
20260507023241 -5 0 0.0 0.0 0.00 0.00 0.08 100
20260507022441 -4 0 0.0 0.0 0.00 0.00 0.08 100
20260507021642 -4 0 0.0 0.0 0.00 0.00 0.08 100
20260507020841 -4 0 0.0 0.0 0.00 0.00 0.08 100
20260507020041 -4 0 0.0 0.0 0.00 0.00 0.08 100
20260507015640 -3 0 0.0 0.0 0.00 0.00 0.08 100
20260507014841 -3 0 0.0 0.0 0.00 0.00 0.08 100
20260507014041 -3 0 0.0 0.0 0.00 0.00 0.08 100
20260507012442 -3 0 0.0 0.0 0.00 0.00 0.08 100
20260507010841 -3 0 0.0 0.0 0.00 0.00 0.08 100
20260507010042 -3 0 0.0 0.0 0.00 0.00 0.08 100
20260507005641 -2 0 0.0 0.0 0.00 0.00 0.08 100
20260507004840 -2 0 0.0 0.0 0.00 0.00 0.08 100